| time (UTC) | temp C | wind direction | speed KPH | gust KPH | rain 1hr cm | rain 24hr cm | rain mn cm | humidity % | barometer mb |
| 20260503225005 | 25 | 308 | 3.2 | 14.5 | 0.00 | 0.00 | 0.00 | 41 | 1011.6 |
| 20260503224505 | 25 | 344 | 3.2 | 17.7 | 0.00 | 0.00 | 0.00 | 42 | 1011.7 |
| 20260503224005 | 25 | 333 | 6.4 | 17.7 | 0.00 | 0.00 | 0.00 | 42 | 1011.8 |
| 20260503223503 | 25 | 318 | 3.2 | 16.1 | 0.00 | 0.00 | 0.00 | 43 | 1011.8 |
| 20260503223002 | 25 | 326 | 6.4 | 16.1 | 0.00 | 0.00 | 0.00 | 42 | 1012.0 |
| 20260503222503 | 25 | 328 | 3.2 | 14.5 | 0.00 | 0.00 | 0.00 | 43 | 1011.9 |
| 20260503222002 | 25 | 309 | 4.8 | 14.5 | 0.00 | 0.00 | 0.00 | 43 | 1012.0 |
| 20260503221501 | 25 | 329 | 6.4 | 17.7 | 0.00 | 0.00 | 0.00 | 42 | 1012.0 |
| 20260503221004 | 25 | 294 | 4.8 | 19.3 | 0.00 | 0.00 | 0.00 | 40 | 1012.1 |
| 20260503220504 | 26 | 331 | 3.2 | 19.3 | 0.00 | 0.00 | 0.00 | 40 | 1012.2 |
| 20260503220017 | 26 | 53 | 4.8 | 17.7 | 0.00 | 0.00 | 0.00 | 40 | 1012.1 |
| 20260503215502 | 26 | 350 | 3.2 | 17.7 | 0.00 | 0.00 | 0.00 | 39 | 1012.1 |
| 20260503215003 | 26 | 22 | 3.2 | 11.3 | 0.00 | 0.00 | 0.00 | 40 | 1012.2 |
| 20260503214510 | 26 | 36 | 3.2 | 9.7 | 0.00 | 0.00 | 0.00 | 39 | 1012.1 |
| 20260503214003 | 26 | 296 | 3.2 | 12.9 | 0.00 | 0.00 | 0.00 | 40 | 1012.2 |
| 20260503213504 | 26 | 333 | 4.8 | 12.9 | 0.00 | 0.00 | 0.00 | 42 | 1012.2 |
| 20260503213011 | 26 | 360 | 4.8 | 11.3 | 0.00 | 0.00 | 0.00 | 40 | 1012.2 |
| 20260503212506 | 26 | 288 | 4.8 | 16.1 | 0.00 | 0.00 | 0.00 | 40 | 1012.3 |
| 20260503212003 | 26 | 344 | 3.2 | 16.1 | 0.00 | 0.00 | 0.00 | 40 | 1012.3 |
| 20260503211504 | 26 | 212 | 4.8 | 12.9 | 0.00 | 0.00 | 0.00 | 41 | 1012.4 |
| 20260503211003 | 26 | 49 | 6.4 | 9.7 | 0.00 | 0.00 | 0.00 | 42 | 1012.4 |
| 20260503210503 | 26 | 287 | 3.2 | 9.7 | 0.00 | 0.00 | 0.00 | 42 | 1012.4 |
| 20260503210008 | 26 | 311 | 1.6 | 11.3 | 0.00 | 0.00 | 0.00 | 41 | 1012.5 |
| 20260503205504 | 25 | 39 | 4.8 | 12.9 | 0.00 | 0.00 | 0.00 | 40 | 1012.6 |
| 20260503205004 | 26 | 334 | 4.8 | 12.9 | 0.00 | 0.00 | 0.00 | 40 | 1012.7 |
| 20260503204512 | 25 | 51 | 3.2 | 9.7 | 0.00 | 0.00 | 0.00 | 42 | 1012.7 |
| 20260503204003 | 25 | 344 | 4.8 | 8.0 | 0.00 | 0.00 | 0.00 | 41 | 1012.8 |
| 20260503203506 | 25 | 34 | 3.2 | 11.3 | 0.00 | 0.00 | 0.00 | 41 | 1012.8 |
| 20260503203010 | 25 | 15 | 3.2 | 11.3 | 0.00 | 0.00 | 0.00 | 41 | 1012.8 |
| 20260503202504 | 25 | 253 | 1.6 | 11.3 | 0.00 | 0.00 | 0.00 | 42 | 1012.8 |
| 20260503202006 | 25 | 325 | 3.2 | 9.7 | 0.00 | 0.00 | 0.00 | 43 | 1012.9 |
| 20260503201511 | 25 | 344 | 3.2 | 9.7 | 0.00 | 0.00 | 0.00 | 43 | 1013.0 |
| 20260503201003 | 25 | 236 | 1.6 | 11.3 | 0.00 | 0.00 | 0.00 | 43 | 1013.0 |
| 20260503200505 | 25 | 346 | 3.2 | 11.3 | 0.00 | 0.00 | 0.00 | 45 | 1013.2 |
| 20260503200005 | 25 | 317 | 3.2 | 14.5 | 0.00 | 0.00 | 0.00 | 43 | 1013.3 |
| 20260503195504 | 25 | 5 | 1.6 | 14.5 | 0.00 | 0.00 | 0.00 | 45 | 1013.3 |
| 20260503195003 | 25 | 258 | 1.6 | 12.9 | 0.00 | 0.00 | 0.00 | 45 | 1013.3 |
| 20260503194510 | 25 | 219 | 3.2 | 12.9 | 0.00 | 0.00 | 0.00 | 43 | 1013.4 |
| 20260503194003 | 25 | 58 | 6.4 | 12.9 | 0.00 | 0.00 | 0.00 | 46 | 1013.5 |
| 20260503193507 | 25 | 22 | 1.6 | 8.0 | 0.00 | 0.00 | 0.00 | 46 | 1013.6 |
| 20260503193011 | 24 | 335 | 1.6 | 12.9 | 0.00 | 0.00 | 0.00 | 44 | 1013.7 |
| 20260503192506 | 24 | 341 | 1.6 | 12.9 | 0.00 | 0.00 | 0.00 | 44 | 1013.9 |
| 20260503192004 | 24 | 206 | 1.6 | 9.7 | 0.00 | 0.00 | 0.00 | 45 | 1013.9 |
| 20260503191513 | 24 | 72 | 3.2 | 9.7 | 0.00 | 0.00 | 0.00 | 44 | 1013.9 |
| 20260503191006 | 23 | 319 | 1.6 | 14.5 | 0.00 | 0.00 | 0.00 | 47 | 1013.9 |
| 20260503190504 | 23 | 71 | 3.2 | 14.5 | 0.00 | 0.00 | 0.00 | 46 | 1013.9 |
| 20260503190013 | 23 | 9 | 3.2 | 9.7 | 0.00 | 0.00 | 0.00 | 46 | 1014.0 |
| 20260503185503 | 23 | 60 | 3.2 | 12.9 | 0.00 | 0.00 | 0.00 | 48 | 1014.0 |
| 20260503185004 | 23 | 338 | 4.8 | 12.9 | 0.00 | 0.00 | 0.00 | 48 | 1014.0 |
| 20260503184511 | 23 | 9 | 3.2 | 9.7 | 0.00 | 0.00 | 0.00 | 48 | 1014.1 |
| 20260503184002 | 23 | 304 | 4.8 | 12.9 | 0.00 | 0.00 | 0.00 | 47 | 1014.1 |
| 20260503183504 | 23 | 315 | 3.2 | 12.9 | 0.00 | 0.00 | 0.00 | 49 | 1014.1 |
| 20260503183010 | 23 | 333 | 3.2 | 9.7 | 0.00 | 0.00 | 0.00 | 49 | 1014.1 |
| 20260503182503 | 23 | 344 | 1.6 | 9.7 | 0.00 | 0.00 | 0.00 | 49 | 1014.1 |
| 20260503182007 | 22 | 333 | 4.8 | 12.9 | 0.00 | 0.00 | 0.00 | 50 | 1014.2 |
| 20260503181512 | 22 | 15 | 6.4 | 12.9 | 0.00 | 0.00 | 0.00 | 48 | 1014.2 |
| 20260503181005 | 23 | 39 | 3.2 | 11.3 | 0.00 | 0.00 | 0.00 | 47 | 1014.3 |
| 20260503180504 | 22 | 84 | 3.2 | 12.9 | 0.00 | 0.00 | 0.00 | 47 | 1014.2 |
| 20260503180016 | 22 | 345 | 4.8 | 12.9 | 0.00 | 0.00 | 0.00 | 49 | 1014.3 |
| 20260503175504 | 22 | 26 | 6.4 | 11.3 | 0.00 | 0.00 | 0.00 | 48 | 1014.3 |
| 20260503175003 | 22 | 86 | 6.4 | 11.3 | 0.00 | 0.00 | 0.00 | 50 | 1014.3 |
| 20260503174519 | 22 | 73 | 4.8 | 12.9 | 0.00 | 0.00 | 0.00 | 51 | 1014.3 |
| 20260503174003 | 21 | 319 | 4.8 | 12.9 | 0.00 | 0.00 | 0.00 | 51 | 1014.4 |
| 20260503173504 | 21 | 298 | 3.2 | 9.7 | 0.00 | 0.00 | 0.00 | 51 | 1014.3 |
| 20260503173010 | 21 | 327 | 4.8 | 9.7 | 0.00 | 0.00 | 0.00 | 52 | 1014.4 |
| 20260503172504 | 21 | 320 | 3.2 | 8.0 | 0.00 | 0.00 | 0.00 | 55 | 1014.5 |
| 20260503172004 | 21 | 51 | 3.2 | 8.0 | 0.00 | 0.00 | 0.00 | 56 | 1014.5 |
| 20260503171514 | 21 | 79 | 4.8 | 9.7 | 0.00 | 0.00 | 0.00 | 54 | 1014.5 |
| 20260503171006 | 20 | 344 | 3.2 | 12.9 | 0.00 | 0.00 | 0.00 | 56 | 1014.5 |
| 20260503170507 | 20 | 57 | 4.8 | 12.9 | 0.00 | 0.00 | 0.00 | 56 | 1014.5 |
| 20260503130503 | 12 | 38 | 0.0 | 0.0 | 0.00 | 0.00 | 0.00 | 80 | 1014.6 |
| 20260503110503 | 12 | 13 | 0.0 | 0.0 | 0.00 | 0.00 | 0.00 | 74 | 1014.9 |
| 20260503090507 | 13 | 42 | 0.0 | 1.6 | 0.00 | 0.00 | 0.00 | 68 | 1015.0 |
| 20260503081515 | 14 | 41 | 0.0 | 0.0 | 0.00 | 0.00 | 0.00 | 62 | 1015.1 |
| 20260503081008 | 14 | 41 | 0.0 | 3.2 | 0.00 | 0.00 | 0.00 | 62 | 1015.1 |
| 20260503072006 | 14 | 30 | 0.0 | 0.0 | 0.00 | 0.00 | 0.00 | 66 | 1015.0 |
| 20260503071514 | 14 | 30 | 0.0 | 0.0 | 0.00 | 0.00 | 0.00 | 64 | 1014.9 |
| 20260503071008 | 14 | 30 | 0.0 | 0.0 | 0.00 | 0.00 | 0.00 | 64 | 1014.9 |
| 20260503055012 | 15 | 30 | 0.0 | 0.0 | 0.00 | 0.00 | 0.00 | 60 | 1014.8 |
| 20260503054523 | 16 | 30 | 0.0 | 0.0 | 0.00 | 0.00 | 0.00 | 60 | 1014.8 |
| 20260503053509 | 16 | 30 | 0.0 | 3.2 | 0.00 | 0.00 | 0.00 | 58 | 1014.9 |
| 20260503053033 | 16 | 29 | 0.0 | 0.0 | 0.00 | 0.00 | 0.00 | 58 | 1014.9 |
| 20260503052503 | 16 | 29 | 0.0 | 0.0 | 0.00 | 0.00 | 0.00 | 58 | 1014.8 |
| 20260503052006 | 16 | 29 | 0.0 | 3.2 | 0.00 | 0.00 | 0.00 | 57 | 1014.9 |
| 20260503051507 | 16 | 29 | 0.0 | 3.2 | 0.00 | 0.00 | 0.00 | 57 | 1014.8 |
| 20260503050503 | 16 | 34 | 0.0 | 1.6 | 0.00 | 0.00 | 0.00 | 56 | 1014.9 |
| 20260503050010 | 16 | 50 | 0.0 | 3.2 | 0.00 | 0.00 | 0.00 | 57 | 1014.8 |
| 20260503045506 | 16 | 59 | 1.6 | 4.8 | 0.00 | 0.00 | 0.00 | 57 | 1014.8 |
| 20260503044508 | 17 | 54 | 0.0 | 3.2 | 0.00 | 0.00 | 0.00 | 57 | 1014.7 |
| 20260503044002 | 17 | 54 | 0.0 | 3.2 | 0.00 | 0.00 | 0.00 | 57 | 1014.7 |
| 20260503043502 | 17 | 30 | 0.0 | 3.2 | 0.00 | 0.00 | 0.00 | 56 | 1014.7 |
| 20260503043002 | 17 | 30 | 0.0 | 3.2 | 0.00 | 0.00 | 0.00 | 56 | 1014.7 |
| 20260503042513 | 17 | 20 | 0.0 | 6.4 | 0.00 | 0.00 | 0.00 | 57 | 1014.6 |
| 20260503042003 | 17 | 20 | 0.0 | 6.4 | 0.00 | 0.00 | 0.00 | 57 | 1014.6 |
| 20260503041506 | 17 | 60 | 1.6 | 3.2 | 0.00 | 0.00 | 0.00 | 56 | 1014.5 |
| 20260503041003 | 17 | 79 | 0.0 | 3.2 | 0.00 | 0.00 | 0.00 | 55 | 1014.4 |
| 20260503040505 | 18 | 57 | 0.0 | 4.8 | 0.00 | 0.00 | 0.00 | 55 | 1014.4 |
| 20260503040012 | 18 | 58 | 1.6 | 4.8 | 0.00 | 0.00 | 0.00 | 55 | 1014.3 |
| 20260503035505 | 18 | 55 | 0.0 | 3.2 | 0.00 | 0.00 | 0.00 | 55 | 1014.3 |
| 20260503035004 | 18 | 360 | 0.0 | 6.4 | 0.00 | 0.00 | 0.00 | 54 | 1014.2 |
| 20260503034514 | 18 | 11 | 1.6 | 6.4 | 0.00 | 0.00 | 0.00 | 54 | 1014.2 |
| 20260503034004 | 18 | 9 | 0.0 | 3.2 | 0.00 | 0.00 | 0.00 | 54 | 1014.1 |
| 20260503033002 | 18 | 352 | 0.0 | 4.8 | 0.00 | 0.00 | 0.00 | 55 | 1014.0 |
| 20260503032502 | 18 | 347 | 0.0 | 4.8 | 0.00 | 0.00 | 0.00 | 55 | 1014.0 |
| 20260503032004 | 19 | 314 | 0.0 | 3.2 | 0.00 | 0.00 | 0.00 | 54 | 1013.9 |
| 20260503031506 | 19 | 334 | 0.0 | 4.8 | 0.00 | 0.00 | 0.00 | 54 | 1013.9 |
| 20260503031004 | 19 | 9 | 0.0 | 6.4 | 0.00 | 0.00 | 0.00 | 54 | 1013.8 |
| 20260503030504 | 19 | 5 | 1.6 | 6.4 | 0.00 | 0.00 | 0.00 | 53 | 1013.9 |
| 20260503030008 | 20 | 341 | 0.0 | 4.8 | 0.00 | 0.00 | 0.00 | 53 | 1013.8 |
| 20260503025504 | 20 | 352 | 0.0 | 6.4 | 0.00 | 0.00 | 0.00 | 52 | 1013.8 |
| 20260503025004 | 20 | 360 | 3.2 | 8.0 | 0.00 | 0.00 | 0.00 | 52 | 1013.7 |
| 20260503024511 | 20 | 66 | 1.6 | 12.9 | 0.00 | 0.00 | 0.00 | 52 | 1013.7 |
| 20260503024009 | 20 | 352 | 1.6 | 12.9 | 0.00 | 0.00 | 0.00 | 51 | 1013.7 |
| 20260503023017 | 20 | 51 | 0.0 | 14.5 | 0.00 | 0.00 | 0.00 | 51 | 1013.6 |
| 20260503022013 | 21 | 348 | 1.6 | 14.5 | 0.00 | 0.00 | 0.00 | 51 | 1013.6 |
| 20260503021502 | 21 | 321 | 1.6 | 14.5 | 0.00 | 0.00 | 0.00 | 51 | 1013.5 |
| 20260503021004 | 21 | 352 | 3.2 | 14.5 | 0.00 | 0.00 | 0.00 | 51 | 1013.5 |
| 20260503020506 | 21 | 339 | 4.8 | 14.5 | 0.00 | 0.00 | 0.00 | 51 | 1013.5 |
| 20260503020007 | 21 | 360 | 1.6 | 17.7 | 0.00 | 0.00 | 0.00 | 51 | 1013.5 |
| 20260503015504 | 21 | 329 | 3.2 | 17.7 | 0.00 | 0.00 | 0.00 | 52 | 1013.5 |
| 20260503015003 | 22 | 9 | 3.2 | 11.3 | 0.00 | 0.00 | 0.00 | 51 | 1013.6 |
| 20260503014509 | 22 | 85 | 4.8 | 11.3 | 0.00 | 0.00 | 0.00 | 51 | 1013.5 |
| 20260503014003 | 22 | 298 | 3.2 | 6.4 | 0.00 | 0.00 | 0.00 | 51 | 1013.6 |
| 20260503013503 | 22 | 177 | 1.6 | 6.4 | 0.00 | 0.00 | 0.00 | 51 | 1013.6 |
| 20260503013014 | 22 | 345 | 1.6 | 6.4 | 0.00 | 0.00 | 0.00 | 52 | 1013.6 |
| 20260503012507 | 22 | 290 | 1.6 | 12.9 | 0.00 | 0.00 | 0.00 | 52 | 1013.6 |
| 20260503012009 | 22 | 74 | 4.8 | 16.1 | 0.00 | 0.00 | 0.00 | 51 | 1013.6 |
| 20260503011522 | 22 | 340 | 3.2 | 16.1 | 0.00 | 0.00 | 0.00 | 51 | 1013.6 |
| 20260503011007 | 22 | 352 | 1.6 | 14.5 | 0.00 | 0.00 | 0.00 | 53 | 1013.6 |
| 20260503010502 | 22 | 360 | 1.6 | 12.9 | 0.00 | 0.00 | 0.00 | 52 | 1013.6 |
| 20260503010031 | 22 | 5 | 6.4 | 17.7 | 0.00 | 0.00 | 0.00 | 52 | 1013.6 |
| 20260503005503 | 22 | 307 | 1.6 | 17.7 | 0.00 | 0.00 | 0.00 | 53 | 1013.6 |
| 20260503005004 | 22 | 350 | 6.4 | 17.7 | 0.00 | 0.00 | 0.00 | 51 | 1013.7 |
| 20260503004508 | 22 | 352 | 3.2 | 12.9 | 0.00 | 0.00 | 0.00 | 52 | 1013.7 |
| 20260503004007 | 22 | 319 | 4.8 | 14.5 | 0.00 | 0.00 | 0.00 | 52 | 1013.8 |
| 20260503003503 | 22 | 352 | 3.2 | 14.5 | 0.00 | 0.00 | 0.00 | 52 | 1013.9 |
| 20260503003013 | 22 | 333 | 6.4 | 16.1 | 0.00 | 0.00 | 0.00 | 1013.9 | |
| 20260503002505 | 23 | 323 | 9.7 | 16.1 | 0.00 | 0.00 | 0.00 | 49 | 1013.9 |
| 20260503002007 | 23 | 290 | 1.6 | 12.9 | 0.00 | 0.00 | 0.00 | 49 | 1013.8 |
| 20260503001521 | 23 | 295 | 3.2 | 9.7 | 0.00 | 0.00 | 0.00 | 49 | 1013.9 |
| 20260503001008 | 23 | 336 | 1.6 | 6.4 | 0.00 | 0.00 | 0.00 | 49 | 1013.9 |
| 20260503000512 | 23 | 286 | 3.2 | 9.7 | 0.00 | 0.00 | 0.00 | 48 | 1013.9 |
| 20260503000039 | 23 | 360 | 3.2 | 14.5 | 0.00 | 0.00 | 0.00 | 50 | 1013.9 |
| 20260502235509 | 23 | 350 | 4.8 | 14.5 | 0.00 | 0.00 | 0.00 | 49 | 1013.9 |
| 20260502235004 | 23 | 338 | 1.6 | 12.9 | 0.00 | 0.00 | 0.00 | 49 | 1014.0 |
| 20260502234508 | 23 | 294 | 3.2 | 12.9 | 0.00 | 0.00 | 0.00 | 50 | 1014.1 |
| 20260502234004 | 22 | 142 | 3.2 | 14.5 | 0.00 | 0.00 | 0.00 | 52 | 1014.2 |
| 20260502233503 | 22 | 47 | 6.4 | 17.7 | 0.00 | 0.00 | 0.00 | 50 | 1014.2 |
| 20260502233012 | 22 | 10 | 6.4 | 17.7 | 0.00 | 0.00 | 0.00 | 51 | 1014.3 |
| 20260502232507 | 22 | 352 | 4.8 | 12.9 | 0.00 | 0.00 | 0.00 | 50 | 1014.4 |
| 20260502232007 | 22 | 329 | 1.6 | 16.1 | 0.00 | 0.00 | 0.00 | 52 | 1014.5 |
| 20260502231513 | 22 | 309 | 4.8 | 20.9 | 0.00 | 0.00 | 0.00 | 51 | 1014.6 |
| 20260502231004 | 22 | 327 | 4.8 | 20.9 | 0.00 | 0.00 | 0.00 | 51 | 1014.6 |
| 20260502230507 | 22 | 24 | 8.0 | 19.3 | 0.00 | 0.00 | 0.00 | 51 | 1014.7 |
| 20260502230024 | 22 | 351 | 1.6 | 19.3 | 0.00 | 0.00 | 0.00 | 51 | 1014.8 |
| 20260502225511 | 22 | 313 | 4.8 | 19.3 | 0.00 | 0.00 | 0.00 | 50 | 1014.9 |